Location: Unspecified
(0.0000°N, 0.0000°E)
Time: 11:16:38
(UTC+00:00)

Vanguard 3 - Pass Details

Date: 09 October 2022
Orbit: 509 x 3255 km, 33.3° (Epoch: 30 November)

Event Time Altitude Azimuth Distance (km) Brightness Sun altitude
Rises 22:07:45 0° 223° (SW) 7,148 12.3 -64.4°
Reaches altitude 10° 22:15:17 10° 208° (SSW) 5,855 11.6 -66.2°
Enters shadow 22:21:45 17° 188° (S) 4,867 11.1 -67.7°
